EW1476 Weather Reports


Display with metric or nautical units.
time (UTC)temp
F
wind
direction
speed
MPH
gust
MPH
rain 1hr
in
rain 24hr
in
rain mn
in
humidity
%
barometer
mb
20260831043008 71 203 0.0 0.0 0.00 0.00 0.00 89 1020.2
20260831041506 71 203 0.0 0.0 0.00 0.00 0.00 89 1020.3
20260831040012 71 203 0.0 0.0 0.00 0.00 0.00 89 1020.3
20260831034513 71 203 0.0 0.0 0.00 0.00 0.00 90 1020.6
20260831033018 71 203 0.0 0.0 0.00 0.00 0.00 89 1020.5
20260831031516 72 203 0.0 0.0 0.00 0.00 0.00 88 1020.4
20260831030013 72 203 0.0 0.0 0.00 0.00 0.00 88 1020.5
20260831024522 72 203 0.0 0.0 0.00 0.00 0.00 87 1020.7
20260831023016 72 203 0.0 0.0 0.00 0.00 0.00 87 1020.8
20260831021516 72 203 0.0 0.0 0.00 0.00 0.00 88 1020.8
20260831020016 72 203 0.0 0.0 0.00 0.00 0.00 88 1020.8
20260831014516 73 203 0.0 0.0 0.00 0.00 0.00 87 1021.0
20260831013035 73 203 0.0 0.0 0.00 0.00 0.00 86 1020.8
20260831011520 74 203 0.0 0.0 0.00 0.00 0.00 85 1020.8
20260831010024 75 203 0.0 1.0 0.00 0.00 0.00 84 1020.8
20260831004513 76 212 0.0 1.0 0.00 0.00 0.00 83 1020.6
20260831003019 76 215 0.0 4.0 0.00 0.00 0.00 82 1020.2
20260831001520 77 198 0.0 0.0 0.00 0.00 0.00 82 1020.2
20260831000007 78 198 0.0 0.0 0.00 0.00 0.00 83 1020.1
20260830234505 79 198 0.0 0.0 0.00 0.00 0.00 85 1019.8
20260830233012 79 198 0.0 0.0 0.00 0.00 0.00 84 1019.6
20260830231515 79 198 0.0 0.0 0.00 0.00 0.00 81 1019.8
20260830230019 80 198 0.0 0.0 0.00 0.00 0.00 81 1020.0
20260830224516 80 198 0.0 0.0 0.00 0.00 0.00 80 1020.0
20260830223010 80 198 0.0 0.0 0.00 0.00 0.00 79 1020.2
20260830221516 80 198 0.0 0.0 0.00 0.00 0.00 78 1019.9
20260830220019 80 198 0.0 0.0 0.00 0.00 0.00 78 1019.8
20260830214521 81 198 0.0 0.0 0.00 0.00 0.00 77 1019.8
20260830213019 81 198 0.0 0.0 0.00 0.00 0.00 77 1019.7
20260830211518 81 198 0.0 0.0 0.00 0.00 0.00 77 1019.6
20260830210012 81 198 0.0 0.0 0.00 0.00 0.00 76 1019.8
20260830204522 81 198 0.0 0.0 0.00 0.00 0.00 75 1019.9
20260830203026 81 198 0.0 0.0 0.00 0.00 0.00 75 1020.2
20260830201523 81 198 0.0 0.0 0.00 0.00 0.00 77 1020.2
20260830200024 81 200 0.0 0.0 0.00 0.00 0.00 75 1020.2
20260830194521 80 188 0.0 2.0 0.00 0.00 0.00 76 1020.4
20260830193016 80 205 0.0 0.0 0.00 0.00 0.00 77 1020.4
20260830191527 80 209 0.0 0.0 0.00 0.00 0.00 78 1020.9
20260830190033 80 191 0.0 2.0 0.00 0.00 0.00 76 1021.1
20260830184504 80 271 0.0 2.0 0.00 0.00 0.00 76 1021.5
20260830183004 79 216 1.0 2.0 0.00 0.00 0.00 76 1021.7
20260830181504 79 229 1.0 2.0 0.00 0.00 0.00 80 1021.8
20260830180003 77 191 0.0 2.0 0.00 0.00 0.00 84 1021.9
20260830174513 75 199 0.0 0.0 0.00 0.00 0.00 88 1022.2
20260830173016 75 202 0.0 0.0 0.00 0.00 0.00 85 1022.5
20260830171508 76 205 0.0 1.0 0.00 0.00 0.00 83 1022.7
20260830170010 77 190 0.0 1.0 0.00 0.00 0.00 81 1022.8
20260830164510 77 231 0.0 1.0 0.00 0.00 0.00 82 1022.8
20260830163004 77 206 0.0 3.0 0.00 0.00 0.00 81 1022.8
20260830161520 77 286 0.0 0.0 0.00 0.00 0.00 82 1022.9
20260830160018 76 241 0.0 0.0 0.00 0.00 0.00 85 1023.0
20260830154515 76 217 0.0 0.0 0.00 0.00 0.00 85 1023.2
20260830153004 75 219 0.0 0.0 0.00 0.00 0.00 85 1023.2
20260830151504 74 224 0.0 0.0 0.00 0.00 0.00 86 1023.2
20260830150004 74 192 0.0 0.0 0.00 0.00 0.00 87 1023.1
20260830144523 73 230 0.0 0.0 0.00 0.00 0.00 88 1023.0
20260830143017 73 234 0.0 0.0 0.00 0.00 0.00 89 1023.2
20260830141516 73 203 0.0 1.0 0.00 0.00 0.00 90 1023.0
20260830140010 72 203 0.0 2.0 0.00 0.00 0.00 90 1023.0
20260830134511 72 207 0.0 0.0 0.00 0.00 0.00 91 1023.4
20260830133004 71 215 0.0 0.0 0.00 0.00 0.00 91 1023.4
20260830131539 71 203 0.0 0.0 0.00 0.00 0.00 92 1023.5
20260830130020 71 205 0.0 0.0 0.00 0.00 0.00 92 1023.8
20260830124513 70 205 0.0 0.0 0.00 0.00 0.00 92 1023.9
20260830123011 70 210 0.0 0.0 0.00 0.00 0.00 93 1023.9
20260830121508 69 210 0.0 0.0 0.00 0.00 0.00 93 1023.8
20260830120029 69 232 0.0 0.0 0.00 0.00 0.00 94 1023.8
20260830114530 68 332 0.0 0.0 0.00 0.00 0.00 93 1023.8
20260830113027 67 332 0.0 0.0 0.00 0.00 0.00 93 1023.7
20260830111524 67 332 0.0 0.0 0.00 0.00 0.00 92 1023.7
20260830110016 66 332 0.0 0.0 0.00 0.00 0.00 91 1023.6
20260830104514 66 329 0.0 0.0 0.00 0.00 0.00 91 1023.5
20260830103031 66 329 0.0 0.0 0.00 0.00 0.00 89 1023.7
20260830101533 66 329 0.0 0.0 0.00 0.00 0.00 89 1023.7
20260830100028 66 329 0.0 0.0 0.00 0.00 0.00 90 1023.6
20260830094504 66 329 0.0 0.0 0.00 0.00 0.00 90 1023.5
20260830093020 66 329 0.0 0.0 0.00 0.00 0.00 89 1023.5
20260830091536 65 329 0.0 0.0 0.00 0.00 0.00 90 1023.7
20260830090014 65 329 0.0 0.0 0.00 0.00 0.00 90 1023.7
20260830084508 65 329 0.0 0.0 0.00 0.00 0.00 90 1023.7
20260830083005 65 329 0.0 0.0 0.00 0.00 0.00 91 1023.6
20260830081512 64 329 0.0 0.0 0.00 0.00 0.00 91 1023.7
20260830080024 64 329 0.0 0.0 0.00 0.00 0.00 91 1023.8
20260830074524 64 329 0.0 0.0 0.00 0.00 0.00 90 1023.8
20260830073013 65 329 0.0 0.0 0.00 0.00 0.00 90 1023.8
20260830071508 65 329 0.0 0.0 0.00 0.00 0.00 86 1023.8
20260830070008 65 329 0.0 0.0 0.00 0.00 0.00 88 1024.0
20260830064503 65 329 0.0 0.0 0.00 0.00 0.00 90 1023.9
20260830063028 64 329 0.0 0.0 0.00 0.00 0.00 88 1024.0
20260830061528 64 329 0.0 0.0 0.00 0.00 0.00 91 1024.2
20260830060018 64 329 0.0 0.0 0.00 0.00 0.00 91 1024.2
20260830054513 64 329 0.0 0.0 0.00 0.00 0.00 91 1024.4
20260830053008 64 329 0.0 0.0 0.00 0.00 0.00 91 1024.4
20260830051533 63 329 0.0 0.0 0.00 0.00 0.00 92 1024.4
20260830050030 63 329 0.0 0.0 0.00 0.00 0.00 92 1024.3
20260830044525 63 329 0.0 0.0 0.00 0.00 0.00 91 1024.2